Weather History for Belize, Belize

Change the Weather History Date:

Sunday, September 22, 2013

  Actual Average Record
Temperature  
Mean Temperature 84 °F -  
Max Temperature 91 °F 87 °F 102 °F (2010)
Min Temperature 76 °F 74 °F 73 °F (2001)
Cooling Degree Days 18    
Growing Degree Days 34 (Base 50)    
Moisture  
Dew Point 77 °F    
Average Humidity 84    
Maximum Humidity 100    
Minimum Humidity 63    
Precipitation  
Precipitation 0.00 in 0.34 in - ()
Sea Level Pressure  
Sea Level Pressure 29.72 in    
Wind  
Wind Speed 4 mph ()    
Max Wind Speed 10 mph    
Max Gust Speed -    
Visibility 7.0 miles    
Events Rain , Thunderstorm    
Averages and records for this station are not official NWS values.
T = Trace of Precipitation, MM = Missing Value Source: Averaged Metar Reports

Daily Weather History Graph

Daily Weather History Graph

Search for Another Location

Airport:

Trip Planner

Search our weather history database for the weather conditions in past years. The results will help you decide how hot, cold, wet, or windy it might be!

Date:

Astronomy

Sep. 22, 2013 Rise Set
Actual Time 5:42 AM CST 5:49 PM CST
Civil Twilight 5:20 AM CST 6:10 PM CST
Nautical Twilight 4:55 AM CST 6:36 PM CST
Astronomical Twilight 4:30 AM CST 7:01 PM CST
Moon 8:14 PM CST (9/22) 8:29 AM CST (9/22)
Length of Visible Light 12h 50m
Length of Day
12h 06m
Waning Gibbous, 88% of the Moon is Illuminated
Sep 22
Waning Gibbous
Sep 26
Last Quarter
Oct 4
New
Oct 11
First Quarter
Oct 18
Full

Hourly Weather History & Observations

Time (CST) Temp. Heat Index Dew Point Humidity Pressure Visibility Wind Dir Wind Speed Gust Speed Precip Events Conditions
12:00 AM 78 °F - 76 °F 93% 29.73 in 11 mi WSW 2.3 mph - -   Mostly Cloudy
3:00 AM 77 °F - 75 °F 92% 29.71 in 12 mi West 2.3 mph - -   Mostly Cloudy
5:00 AM 77.0 °F - 75.2 °F 94% 29.72 in 6.2 mi NW 3.5 mph - N/A Thunderstorm Thunderstorm
6:00 AM 76 °F - 75 °F 97% 29.74 in 12 mi North 3.5 mph - -  
6:00 AM 77.0 °F - 75.2 °F 94% 29.73 in 6.2 mi North 3.5 mph - N/A   Mostly Cloudy
6:10 AM 77.0 °F - 75.2 °F 94% 29.73 in 6.2 mi NW 3.5 mph - N/A   Mostly Cloudy
7:00 AM 77.0 °F - 77.0 °F 100% 29.74 in 6.2 mi NW 3.5 mph - N/A   Mostly Cloudy
8:00 AM 82.4 °F 90.9 °F 77.0 °F 84% 29.74 in 6.2 mi NNW 3.5 mph - N/A   Mostly Cloudy
9:00 AM 86 °F - 79 °F 74% 29.75 in 12 mi West 5.8 mph - -   Scattered Clouds
9:00 AM 86.0 °F 99.3 °F 78.8 °F 79% 29.74 in 6.2 mi West 5.8 mph - N/A   Mostly Cloudy
10:00 AM 89.6 °F 104.7 °F 78.8 °F 70% 29.75 in 6.2 mi WNW 4.6 mph - N/A   Scattered Clouds
11:00 AM 91.4 °F 105.1 °F 77.0 °F 63% 29.74 in 6.2 mi North 3.5 mph - N/A   Scattered Clouds
12:00 PM 89.6 °F 108.2 °F 80.6 °F 75% 29.72 in 6.2 mi East 6.9 mph - N/A   Scattered Clouds
1:00 PM 86.0 °F 101.9 °F 80.6 °F 84% 2.97 in 6.2 mi NE 4.6 mph - N/A Rain Light Rain Showers
1:15 PM 86.0 °F 101.9 °F 80.6 °F 84% 29.71 in 3.1 mi NW 9.2 mph - N/A Rain , Thunderstorm Light Thunderstorms and Rain
1:25 PM 86.0 °F 101.9 °F 80.6 °F 84% 29.71 in 1.9 mi ENE 10.4 mph - N/A Rain , Thunderstorm Thunderstorms and Rain
1:45 PM 86.0 °F 101.9 °F 80.6 °F 84% 29.68 in 3.1 mi NE 6.9 mph - N/A Rain , Thunderstorm Light Thunderstorms and Rain
2:00 PM 77.0 °F - 73.4 °F 89% 29.68 in 6.2 mi East 6.9 mph - N/A Rain , Thunderstorm Light Thunderstorms and Rain
3:00 PM 86 °F - 79 °F 73% 29.68 in 9 mi ESE 5.8 mph - - Thunderstorm Thunderstorm
3:00 PM 86.0 °F 99.3 °F 78.8 °F 79% 29.67 in 6.2 mi ESE 5.8 mph - N/A Thunderstorm Thunderstorm
4:00 PM 87.8 °F 99.7 °F 77.0 °F 70% 29.69 in 6.2 mi SSE 6.9 mph - N/A Thunderstorm Thunderstorm
5:00 PM 86.0 °F 96.9 °F 77.0 °F 74% 29.71 in 6.2 mi SSE 3.5 mph - N/A Thunderstorm Thunderstorm
6:00 PM 80.6 °F 87.1 °F 77.0 °F 89% 29.75 in 6.2 mi WNW 6.9 mph - N/A   Mostly Cloudy
9:00 PM 78 °F - 74 °F 85% 29.82 in 12 mi North 6.9 mph - -   Partly Cloudy